Location: Unspecified
(0.0000°N, 0.0000°E)
Time: 20:11:26
(UTC+00:00)

FUSE - Visible Passes

Search period start: 16 January 2022 00:00
Search period end: 26 January 2022 00:00
Orbit: 741 x 756 km, 25.0° (Epoch: 15 January)

Date Brightness Start Highest point End Pass type
(mag) Time Alt. Az. Time Alt. Az. Time Alt. Az.
16 Jan 6.7 03:10:45 13° SSE 03:10:45 13° SSE 03:12:18 10° SE visible
16 Jan 4.9 04:51:21 10° SW 04:56:26 45° SSE 05:01:28 10° E visible
16 Jan 5.9 19:07:59 10° W 19:12:32 27° SSW 19:17:05 10° SSE visible
17 Jan 5.3 04:07:41 27° SSW 04:09:37 35° SSE 04:14:27 10° E visible
17 Jan 6.8 20:11:24 10° SSW 20:12:28 11° SSW 20:13:33 10° S visible
18 Jan 6.1 03:24:50 22° ESE 03:24:50 22° ESE 03:27:20 10° E visible
18 Jan 3.8 05:04:37 14° WSW 05:09:09 75° NNW 05:14:27 10° ENE visible
18 Jan 6.6 19:23:06 10° SW 19:25:32 13° SSW 19:27:59 10° S visible
19 Jan 3.8 04:21:44 70° SW 04:22:21 86° SSE 04:27:41 10° ENE visible
19 Jan 6.5 18:35:23 10° WSW 18:38:37 16° SSW 18:41:52 10° SSE visible
20 Jan 5.9 03:38:47 24° ENE 03:38:47 24° ENE 03:40:51 10° ENE visible
20 Jan 4.8 05:18:34 17° WNW 05:21:54 31° NNW 05:26:35 10° NE visible
21 Jan 4.5 04:35:30 38° NNW 04:35:30 38° NNW 04:40:02 10° NE visible
22 Jan 6.1 03:52:19 16° NE 03:52:19 16° NE 03:53:26 10° NE visible
22 Jan 5.7 05:32:05 10° NW 05:34:51 14° NNW 05:37:43 10° NNE visible
23 Jan 5.6 04:48:47 17° N 04:48:47 17° N 04:51:31 10° NNE visible
